Home > Weather > Shymkent > Past weeks

Flag for Kazakhstan Weather for the Past 2 Weeks in Shymkent, Kazakhstan

Now
52 °F

Sunny.


Feels Like: 51 °F
Forecast: 26 / 58 °F
Wind: 3 mph from Northwest

Location: Shymkent Airport

Current Time: Feb 6, 2016 at 6:21:08 PM

Latest Report: Feb 6, 2016 at 5:30 PM


Visibility: 10 mi

Pressure: 30.09 "Hg (28.31 "Hg at 506m altitude)

Humidity: 54%

Dew point: 36 °F

Location of ShymkentLocation

Historic Weather in Shymkent — Graph

°F

Shymkent Temperature Yesterday

Maximum temperature yesterday: 46 °F (at 4:30 PM)
Minimum temperature yesterday: 34 °F (at 12:00 AM)
Average temperature yesterday: 38 °F

High & Low Weather Summary for the Past Weeks

 TemperatureHumidityPressure
High59 °F (Jan 24, 3:00 PM)100% (Jan 22, 11:00 PM)30.54 "Hg (Jan 22, 11:00 PM)
Low23 °F (Jan 29, 2:30 AM)15% (Feb 3, 4:00 PM)29.77 "Hg (Jan 25, 11:30 PM)
Average36 °F80%30.24 "Hg
* Reported Jan 22 5:00 PM — Feb 6 5:00 PM, Shymkent, Weather by CustomWeather, © 2016

Note: Actual official high and low records may vary slightly from our data, if they occured in-between our weather recording intervals... More about our weather records

Advertising

Shymkent Weather History for the Previous 24 Hours

 ConditionsComfort  
Time TempWeatherWind HumidityBarometerVisibility
5:00 PM
Sat, Feb 6
54 °FSunny.1 mph51%30.09 "Hg10 mi
4:30 PM55 °FPassing clouds.3 mph44%30.09 "HgN/A
4:00 PM55 °FPassing clouds.3 mph41%30.09 "HgN/A
3:30 PM54 °FPassing clouds.3 mph44%30.09 "HgN/A
3:00 PM54 °FPassing clouds.3 mph44%30.12 "HgN/A
2:30 PM52 °FSunny.1 mph54%30.12 "Hg10 mi
2:00 PM50 °FPassing clouds.3 mph54%30.12 "HgN/A
1:30 PM50 °FSunny.3 mph54%30.12 "Hg10 mi
1:00 PM48 °FPassing clouds.6 mph54%30.15 "HgN/A
12:30 PM46 °FPassing clouds.6 mph57%30.15 "HgN/A
12:00 PM46 °FSunny.8 mph57%30.18 "Hg10 mi
11:30 AM45 °FPassing clouds.3 mph57%30.18 "HgN/A
10:30 AM41 °FClear.3 mph66%30.21 "Hg4 mi
10:00 AM36 °FFog.1 mph81%30.21 "Hg3 mi
9:30 AM32 °FIce fog.No wind87%30.21 "Hg3 mi
9:00 AM28 °FIce fog.1 mph86%30.21 "Hg3 mi
8:00 AM28 °FPassing clouds.1 mph86%30.21 "Hg5 mi
7:30 AM27 °FPassing clouds.3 mph86%30.21 "Hg3 mi
6:30 AM27 °FIce fog.3 mph86%30.21 "Hg2 mi
6:00 AM30 °FIce fog.1 mph93%30.21 "Hg2 mi
5:30 AM28 °FIce fog.3 mph100%30.21 "Hg2 mi
5:00 AM30 °FIce fog.3 mph80%30.24 "Hg2 mi
4:30 AM30 °FIce fog.3 mph100%30.24 "Hg1 mi
4:00 AM32 °FIce fog.1 mph100%30.27 "Hg1 mi
3:30 AM30 °FIce fog.1 mph93%30.27 "Hg1 mi
3:00 AM32 °FIce fog.3 mph100%30.30 "Hg1 mi
2:30 AM28 °FIce fog.1 mph100%30.30 "Hg0 mi
2:00 AM30 °FIce fog.1 mph100%30.33 "Hg0 mi
1:30 AM32 °FFog.1 mph100%30.33 "Hg1 mi
1:00 AM32 °FIce fog.3 mph100%30.33 "Hg0 mi
12:30 AM28 °FIce fog.1 mph100%30.36 "Hg0 mi
12:00 AM32 °FIce fog.No wind100%30.36 "Hg0 mi
11:30 PM
Fri, Feb 5
34 °FFog.1 mph100%30.39 "Hg0 mi
11:00 PM34 °FFog.1 mph100%30.39 "Hg0 mi
10:30 PM34 °FFog.1 mph100%30.39 "Hg1 mi
10:00 PM36 °FFog.No wind100%30.42 "Hg1 mi
9:30 PM36 °FFog.1 mph100%30.42 "Hg1 mi
9:00 PM36 °FFog.3 mph100%30.42 "Hg1 mi
8:30 PM37 °FFog.1 mph100%30.45 "Hg1 mi
8:00 PM39 °FFog.1 mph100%30.45 "Hg1 mi
7:30 PM39 °FFog.No wind100%30.45 "Hg1 mi
7:00 PM39 °FFog.3 mph87%30.45 "Hg2 mi
6:30 PM43 °FFog.3 mph81%30.45 "Hg3 mi
6:00 PM46 °FScattered clouds.3 mph66%30.45 "Hg3 mi
Weather by CustomWeather, © 2016

See weather overviewHow to use our weather pages